Location: downtown San Diego
(32.7310°N, 117.1990°W)
Time: 02:11:07
(UTC-07:00)

Cosmos 1680 Rocket - Pass Details

Date: 19 May 2017
Orbit: 760 x 782 km, 74.1° (Epoch: 25 September)

Event Time Altitude Azimuth Distance (km) Brightness Sun altitude
Exits shadow 21:42:16 49° 142° (SE) 988 3.6 -21.5°
Maximum altitude 21:43:12 56° 103° (ESE) 907 3.5 -21.6°
Drops below altitude 10° 21:48:18 10° 26° (NNE) 2,302 6.2 -22.4°
Sets 21:50:42 0° 22° (NNE) 3,229 7.0 -22.7°
